Temperature
14 15 15 15 15 14 14 14 13 14 13 14 14 13 14 14 14 14 14 14 15 14 14 14 14 14 14 13 13 13 13 13 12 12 12 12 11 11 11 11 11 11 10 10
14 14 14 14 14 14 14 14 13 13 13 13 14 14 14 14 14 13 14 14 14 14 14 14 14 14 13 13 13 13 13 12 12 12 12 11 11 11 11 11 10 10 10 10
13 13 14 13 14 14 14 13 13 13 14 13 12 12 13 13 13 14 14 14 14 14 14 14 14 14 13 13 13 13 12 12 12 11 11 11 11 11 11 10 10 10 10 10
11 13 13 14 14 14 14 14 13 13 13 13 13 13 14 14 14 14 14 14 14 14 14 14 13 13 13 13 12 12 12 12 11 11 11 11 10 10 10 10 10 10 10 9
10 12 12 13 14 14 13 13 13 13 12 13 13 13 13 14 14 14 14 14 14 14 14 13 13 13 12 12 12 12 12 11 11 11 11 10 10 10 10 10 10 9 9 9
10 12 12 13 14 14 14 13 13 13 12 12 12 11 12 14 14 14 14 14 13 13 13 13 12 12 12 12 12 11 11 11 11 10 10 10 10 10 9 9 9 9 9 9
10 11 12 12 13 14 14 13 14 14 13 12 11 12 14 14 14 14 13 13 13 13 13 12 12 12 11 11 11 11 11 10 10 10 9 9 9 9 9 9 9 8 8 8
9 11 12 13 12 13 13 14 14 14 14 13 13 13 13 13 13 13 13 13 12 12 12 12 11 11 11 11 11 10 10 10 10 9 9 9 9 9 8 8 8 8 8 8
10 12 12 13 13 14 14 14 14 14 14 14 13 13 13 13 13 13 12 12 12 12 11 11 11 11 11 11 10 10 10 10 9 9 9 8 8 8 8 8 8 7 7 7
9 10 11 12 13 14 14 14 14 14 14 13 13 13 12 12 12 12 12 11 11 11 11 11 10 10 10 10 10 10 10 9 9 9 8 8 8 8 7 7 7 7 7 7
9 10 11 12 13 14 14 14 14 13 13 13 13 12 12 11 11 11 11 11 11 10 10 10 10 10 10 9 9 9 9 9 9 8 8 8 7 7 7 7 7 7 7 6
10 11 10 12 13 13 13 13 13 13 13 13 12 12 12 11 11 11 10 10 10 10 10 9 9 9 9 9 9 9 9 8 8 8 8 7 7 7 6 6 6 6 6 6
12 12 12 12 12 12 13 13 12 12 12 12 12 12 11 11 10 10 10 10 10 9 9 9 9 9 9 8 8 8 8 8 8 7 7 7 7 6 6 6 6 6 5 5
12 12 11 12 12 12 12 12 12 12 11 11 11 11 11 10 10 9 9 9 9 9 9 9 8 8 8 8 8 8 8 7 7 7 7 6 6 6 6 6 5 5 5 5
11 11 11 11 11 11 11 11 11 11 11 11 11 10 10 10 9 9 9 9 9 8 8 8 8 8 8 7 7 7 7 7 7 7 6 6 6 5 5 5 5 5 5 4
11 11 11 11 11 11 11 10 10 10 10 10 10 10 10 9 9 9 8 8 8 8 8 8 8 7 7 7 7 7 7 7 6 6 6 5 5 5 5 5 4 4 4 4
10 10 10 10 10 10 10 10 10 10 10 10 10 9 9 9 8 8 8 8 8 8 7 7 7 7 7 7 7 7 6 6 6 6 5 5 5 5 4 4 4 4 4 4
10 10 10 10 10 10 10 10 10 10 9 9 9 9 8 8 8 8 8 7 7 7 7 7 7 6 6 6 6 6 6 6 6 5 5 5 4 4 4 4 4 4 3 3
10 10 9 9 9 9 9 9 9 9 9 9 8 8 8 8 8 7 7 7 7 7 7 6 6 6 6 6 6 6 5 5 5 5 4 4 4 4 4 4 3 3 3 3
9 9 9 9 9 9 9 9 9 9 8 8 8 8 8 7 7 7 7 7 7 7 6 6 5 5 5 5 5 5 5 5 5 4 4 4 4 3 3 3 3 3 3 2
9 9 9 8 8 8 8 8 8 8 8 8 8 8 7 7 7 7 6 6 6 6 6 5 5 5 5 5 4 4 4 4 4 4 4 3 3 3 3 3 2 2 2 2
8 8 8 8 8 8 8 8 8 8 8 8 7 7 7 7 7 6 6 6 6 5 5 5 5 5 4 4 4 4 4 4 3 3 3 3 3 3 2 2 2 2 2 1
8 8 8 8 7 7 7 7 7 7 7 7 7 7 7 7 6 6 6 5 5 5 5 5 4 4 4 4 4 3 3 3 3 3 3 2 2 2 2 2 2 1 1 1
8 7 7 7 7 7 7 7 7 6 6 6 6 6 6 6 6 6 5 5 5 5 4 4 4 4 3 3 3 3 3 3 2 2 2 2 2 2 2 1 1 1 1 1
7 7 7 7 7 6 6 6 6 6 6 6 6 6 6 6 6 5 5 5 4 4 4 4 3 3 3 3 3 2 2 2 2 2 2 2 1 1 1 1 1 1 0 0
7 6 6 6 6 6 6 6 6 6 5 5 5 5 5 5 5 5 4 4 4 4 4 3 3 3 3 2 2 2 2 2 2 2 1 1 1 1 1 1 0 0 0 -0
6 6 6 6 6 6 5 5 5 5 5 5 5 5 5 4 4 4 4 4 3 3 3 3 3 2 2 2 2 2 2 1 1 1 1 1 1 1 0 0 0 0 -0 -0
Wind_Speed
4 4 3 3 4 4 6 7 8 8 8 9 7 6 4 3 2 1 1 1 3 3 3 2 2 2 2 3 3 4 5 5 6 5 5 4 4 4 3 3 4 3 3 3
3 2 3 4 6 6 6 5 6 6 8 7 4 2 2 2 2 2 2 3 3 3 3 3 3 3 2 2 2 3 4 5 5 4 4 4 4 4 4 4 3 3 3 3
4 4 3 5 6 7 5 5 7 8 8 3 2 3 4 4 3 4 4 4 4 4 5 5 4 4 4 3 2 3 3 3 3 4 4 4 4 4 4 4 4 4 4 4
1 1 6 7 3 4 5 5 5 5 4 4 5 4 3 3 4 5 4 4 4 4 3 3 2 2 2 2 3 3 3 3 3 3 3 3 4 5 5 4 4 4 4 4
3 3 7 7 3 4 4 5 4 5 4 2 0 2 3 3 3 4 4 4 4 3 3 2 2 3 3 2 2 3 3 3 3 3 3 3 4 5 4 4 4 4 3 3
4 4 6 6 3 2 2 5 4 5 4 3 3 0 5 4 2 2 1 1 2 2 1 2 2 3 4 3 2 3 4 4 3 3 3 4 4 4 3 3 4 3 2 3
5 5 7 7 3 3 4 6 3 5 5 5 5 5 4 2 2 1 1 0 1 2 2 2 2 3 3 2 3 4 2 2 2 2 3 3 3 2 2 2 2 2 2 1
5 5 8 4 4 6 7 2 2 3 4 4 4 2 1 1 1 0 1 1 1 2 1 0 2 3 2 3 3 1 2 2 2 2 2 2 2 1 2 2 3 2 1 1
8 8 5 3 5 4 3 3 2 3 3 4 3 3 2 1 1 1 1 1 1 2 1 0 1 2 2 2 1 1 2 2 1 1 1 1 2 2 2 2 2 2 2 1
4 6 5 4 4 3 2 3 3 3 3 3 3 3 2 2 2 2 1 2 1 2 2 1 1 1 2 1 1 2 2 2 1 1 1 1 1 1 1 2 2 2 2 2
5 6 4 4 4 3 2 1 1 1 2 4 4 3 3 3 3 2 1 1 2 3 3 2 1 1 0 1 2 3 2 2 1 1 1 1 1 0 1 2 3 3 3 2
7 6 5 6 5 3 2 2 3 2 2 2 4 4 3 3 3 3 2 2 2 2 2 2 1 1 1 1 3 4 3 2 1 1 1 1 1 1 3 2 1 1 1 2
7 5 5 6 4 3 3 3 3 3 3 3 3 3 4 3 3 2 2 3 3 3 2 2 1 1 1 1 2 3 3 2 2 2 2 2 2 2 0 2 3 3 2 1
6 4 5 5 4 3 3 2 2 1 2 3 3 2 3 3 3 3 3 3 3 3 2 2 2 1 1 1 2 3 2 2 2 2 2 2 2 2 2 2 0 1 2 2
6 6 6 4 3 2 2 2 2 2 2 2 2 3 4 4 4 3 2 2 2 2 2 2 1 1 1 2 2 3 2 2 2 2 2 2 2 2 1 1 1 1 0 1
4 3 3 4 4 4 3 3 3 4 3 2 2 3 3 4 3 2 2 3 4 3 2 2 2 2 1 2 2 2 2 3 3 2 2 2 2 2 1 2 2 1 1 1
5 5 5 5 5 5 4 4 5 5 3 3 3 3 3 3 2 2 2 2 3 3 3 2 2 1 1 2 2 2 1 2 3 2 2 2 2 2 2 2 2 2 1 1
7 7 6 6 6 5 5 4 4 4 4 4 3 3 4 4 4 4 3 2 2 1 0 1 1 1 1 1 2 2 2 2 2 2 2 1 1 1 1 1 2 1 1 1
4 4 4 4 5 5 5 4 4 4 4 4 4 4 4 4 4 3 3 4 3 2 2 2 2 2 2 1 2 2 2 2 2 2 2 2 1 1 1 1 1 1 1 1
2 2 2 2 2 3 3 3 3 3 3 4 4 4 3 3 3 4 4 3 3 3 3 3 3 2 2 2 2 2 2 2 2 2 2 2 1 1 1 1 1 1 1 1
2 1 2 2 2 2 3 3 3 3 3 4 5 5 5 4 4 4 4 2 2 2 3 3 2 2 2 2 3 2 2 2 2 2 2 2 1 1 1 1 1 1 1 1
1 1 1 2 2 1 1 2 3 3 3 3 4 4 4 3 4 3 3 3 3 4 3 2 2 3 3 3 3 3 2 2 2 2 2 2 2 2 1 1 2 1 1 1
1 1 1 1 2 2 1 1 2 2 3 4 4 4 5 4 4 4 3 2 3 4 3 3 3 5 5 3 3 3 2 2 2 2 2 2 2 2 2 2 2 2 2 2
1 1 1 1 2 2 1 1 1 1 2 2 3 4 4 3 2 2 3 4 5 4 3 3 4 5 4 2 2 2 2 2 2 1 1 1 1 2 2 2 2 2 2 2
2 2 1 2 2 2 3 2 2 1 2 1 1 1 2 3 3 3 3 3 4 4 2 3 4 3 2 2 2 2 2 2 2 2 2 1 2 2 2 2 2 2 2 2
2 2 2 3 2 2 2 2 2 2 2 1 0 0 1 2 2 3 3 3 3 3 2 2 2 2 2 2 2 2 2 2 1 1 2 2 2 2 2 2 2 2 3 3
1 1 1 0 0 1 2 2 2 2 2 3 2 1 2 2 2 3 3 3 3 2 2 2 2 2 2 2 1 1 2 2 2 2 2 2 2 3 3 3 3 2 2 3
Wind_Direction
237 243 224 236 246 210 201 201 207 230 235 257 259 255 253 241 208 170 205 190 190 196 198 193 194 198 194 197 192 183 178 188 204 208 209 212 211 210 207 202 205 207 207 223
275 270 246 267 262 236 230 224 221 241 261 263 257 247 253 243 199 199 230 243 225 205 198 200 203 203 193 191 194 178 184 199 204 200 203 208 212 210 209 214 217 210 214 223
263 302 336 274 243 219 214 214 198 223 243 244 252 241 242 239 225 225 234 233 224 216 212 212 211 199 195 199 181 172 189 201 200 199 207 215 213 209 210 216 216 221 225 223
202 58 247 247 232 199 208 240 218 223 237 227 232 240 253 229 216 233 239 238 235 230 229 221 196 177 167 155 163 174 183 196 201 198 208 212 208 216 221 216 212 219 224 225
155 219 271 289 256 183 189 264 225 213 232 246 273 15 316 260 219 230 240 239 230 221 214 193 175 164 147 150 161 168 186 202 210 201 206 209 222 230 229 222 221 220 224 222
161 198 241 250 241 188 133 274 240 192 204 197 117 128 273 270 246 264 272 235 205 184 161 166 181 155 148 164 175 203 213 212 205 195 202 216 226 233 233 220 222 216 222 222
190 222 258 252 240 132 178 242 230 190 193 181 196 219 246 266 280 277 301 338 154 144 157 187 170 152 159 179 219 231 221 205 202 202 210 216 223 227 208 193 190 197 209 238
170 209 251 240 146 182 216 243 199 195 195 197 222 247 231 223 237 46 21 34 121 126 134 167 155 154 167 214 238 215 167 185 206 213 220 206 199 222 200 173 168 185 198 252
195 215 241 221 216 241 209 213 216 201 221 196 211 239 239 226 197 193 169 157 144 137 128 52 165 159 185 235 216 161 147 170 188 184 197 172 171 180 181 174 174 189 186 212
244 260 258 260 261 271 244 232 238 208 194 184 211 223 225 222 204 197 189 176 150 130 142 199 236 188 198 215 185 147 152 166 160 143 117 97 121 150 165 185 182 186 187 201
253 270 289 275 237 240 265 268 268 243 211 194 191 215 209 214 215 206 205 198 168 167 179 206 204 157 180 174 146 137 142 144 137 141 149 129 105 145 202 218 197 187 199 197
238 237 222 256 255 221 214 240 238 239 258 235 196 199 198 206 210 198 192 184 166 167 170 192 181 179 216 175 154 148 146 149 154 161 158 148 134 49 23 31 32 117 152 159
240 247 237 252 258 242 231 237 229 218 225 235 224 201 190 195 197 187 182 178 182 182 181 179 166 204 243 180 158 158 161 168 162 161 165 171 163 157 144 14 28 33 38 58
233 231 252 247 246 253 240 235 217 221 235 215 209 199 186 178 172 179 200 199 185 166 164 167 160 226 243 179 158 161 164 170 162 163 173 180 180 177 178 171 145 350 358 14
244 232 229 236 234 234 210 180 173 213 217 226 199 179 176 177 184 201 202 167 145 145 162 164 171 244 247 174 163 170 171 174 168 161 162 165 164 162 168 177 181 198 360 351
244 240 217 214 223 230 211 197 201 221 217 207 202 196 190 184 181 176 168 158 155 177 194 191 210 237 216 163 160 166 178 182 162 151 148 152 162 166 178 187 188 189 205 237
213 230 229 227 229 229 223 218 210 212 210 212 213 193 168 156 153 164 179 184 177 180 186 193 216 231 184 159 158 163 168 180 163 139 145 163 172 182 189 184 186 196 216 215
223 228 222 217 215 217 221 213 203 199 202 206 187 167 168 175 188 196 189 163 137 120 180 209 186 151 139 144 153 159 154 153 143 147 150 152 162 178 181 186 190 200 234 230
229 225 224 219 214 205 203 202 199 198 199 181 173 183 190 193 190 181 162 152 158 176 227 198 170 141 135 150 131 126 131 132 133 137 144 158 149 155 176 188 202 205 198 193
221 212 205 207 200 192 198 197 187 192 197 181 175 177 186 197 182 170 163 177 202 200 183 167 154 147 149 156 132 122 134 143 150 151 148 149 158 169 171 185 204 216 205 201
214 197 184 189 196 197 190 180 175 190 195 180 182 193 200 197 177 165 162 193 234 162 153 159 144 150 156 149 136 129 140 150 156 165 172 174 179 186 189 198 208 214 223 220
208 184 180 165 156 178 185 163 168 179 178 182 188 187 178 177 174 170 181 196 195 169 150 152 156 167 157 138 127 133 141 150 159 171 181 184 185 191 200 207 219 223 222 225
184 182 173 163 159 160 128 137 160 169 178 184 186 186 185 185 178 172 196 209 181 174 156 163 177 173 157 140 140 144 149 157 169 181 189 197 202 204 208 217 225 223 215 217
176 174 176 145 122 124 147 203 166 159 165 176 182 180 171 168 183 201 183 173 168 164 160 170 172 168 154 139 146 150 160 177 186 182 184 197 211 215 216 220 225 227 222 221
192 181 161 145 160 189 198 178 141 130 122 123 138 153 166 173 178 182 163 167 166 153 149 168 167 161 144 141 154 161 172 190 186 182 192 206 217 223 230 230 228 229 229 231
195 204 208 207 205 196 174 156 156 160 148 143 120 120 128 137 148 147 144 153 160 156 153 160 164 158 148 159 170 178 184 211 231 219 211 219 224 226 231 236 242 240 237 238
196 188 179 184 222 179 166 164 169 179 178 171 171 167 145 138 138 141 141 145 154 159 161 163 163 167 172 178 183 186 190 199 204 213 221 225 225 228 231 234 241 245 244 238
Height
1497 1495 1495 1495 1495 1496 1499 1500 1504 1500 1498 1491 1488 1487 1486 1485 1485 1485 1485 1485 1486 1486 1487 1488 1489 1490 1491 1492 1494 1495 1497 1498 1499 1500 1501 1501 1502 1502 1503 1504 1504 1504 1505 1505
1497 1494 1494 1495 1492 1492 1494 1493 1495 1494 1492 1485 1484 1484 1483 1482 1482 1482 1483 1483 1484 1484 1485 1485 1487 1488 1489 1490 1491 1492 1493 1494 1495 1496 1497 1497 1498 1499 1499 1500 1500 1501 1501 1501
1503 1497 1495 1498 1490 1488 1489 1487 1488 1491 1486 1482 1483 1482 1481 1480 1480 1480 1481 1481 1482 1482 1482 1483 1484 1485 1486 1487 1488 1489 1490 1490 1491 1492 1493 1493 1494 1494 1495 1495 1496 1496 1497 1497
1505 1501 1504 1491 1481 1481 1483 1482 1481 1480 1480 1480 1479 1479 1479 1479 1479 1479 1479 1479 1480 1480 1480 1481 1482 1483 1484 1485 1485 1485 1486 1487 1487 1488 1489 1489 1490 1490 1490 1491 1492 1492 1492 1493
1507 1506 1499 1487 1480 1479 1482 1481 1477 1477 1477 1477 1478 1478 1477 1477 1477 1477 1477 1478 1478 1478 1478 1479 1479 1480 1481 1482 1482 1482 1483 1483 1484 1484 1485 1485 1485 1486 1486 1487 1487 1487 1488 1488
1504 1502 1500 1485 1476 1475 1478 1481 1474 1473 1475 1476 1477 1481 1477 1475 1475 1475 1475 1475 1476 1476 1476 1476 1477 1478 1478 1479 1479 1479 1480 1480 1481 1481 1481 1481 1481 1482 1482 1482 1483 1483 1484 1484
1501 1499 1490 1477 1473 1475 1485 1480 1471 1470 1471 1473 1474 1474 1473 1472 1473 1473 1473 1473 1474 1474 1474 1474 1474 1475 1475 1476 1476 1477 1477 1478 1478 1478 1478 1478 1478 1478 1478 1478 1479 1479 1480 1480
1497 1497 1490 1471 1472 1475 1473 1468 1468 1468 1469 1470 1470 1470 1470 1470 1470 1470 1470 1471 1471 1471 1471 1472 1472 1472 1472 1473 1474 1475 1475 1475 1475 1475 1475 1475 1475 1475 1475 1475 1475 1475 1476 1477
1481 1479 1470 1468 1468 1467 1467 1467 1467 1467 1468 1468 1468 1468 1468 1468 1467 1468 1468 1469 1469 1469 1469 1470 1470 1470 1470 1471 1471 1471 1471 1472 1472 1472 1472 1472 1472 1472 1472 1472 1472 1472 1473 1473
1475 1469 1467 1466 1465 1465 1465 1465 1465 1465 1466 1466 1466 1466 1466 1466 1465 1465 1466 1466 1466 1467 1467 1467 1468 1468 1468 1469 1469 1469 1469 1469 1469 1469 1469 1469 1469 1470 1470 1470 1470 1470 1470 1471
1471 1467 1464 1463 1462 1463 1463 1463 1463 1463 1464 1464 1464 1464 1464 1464 1463 1463 1463 1464 1464 1465 1465 1465 1465 1465 1466 1466 1466 1466 1466 1466 1467 1467 1467 1467 1467 1467 1467 1467 1468 1468 1468 1468
1466 1462 1462 1460 1460 1461 1461 1461 1461 1461 1461 1461 1461 1461 1461 1461 1461 1461 1461 1461 1462 1462 1462 1463 1463 1463 1463 1463 1464 1464 1464 1464 1464 1464 1465 1465 1465 1465 1465 1465 1466 1466 1466 1466
1459 1458 1458 1457 1457 1458 1458 1458 1459 1459 1459 1458 1458 1459 1458 1459 1459 1459 1458 1459 1459 1460 1460 1460 1461 1461 1461 1461 1461 1462 1461 1462 1462 1462 1462 1462 1462 1462 1462 1463 1464 1464 1464 1464
1455 1455 1454 1454 1454 1455 1455 1455 1456 1456 1456 1456 1456 1456 1456 1456 1456 1456 1456 1457 1457 1458 1458 1458 1458 1458 1459 1459 1459 1459 1459 1460 1460 1460 1460 1460 1460 1460 1460 1461 1461 1461 1462 1462
1450 1451 1450 1450 1451 1452 1452 1452 1452 1452 1453 1453 1453 1453 1454 1454 1454 1454 1455 1455 1456 1456 1456 1456 1456 1456 1457 1457 1457 1457 1457 1457 1457 1458 1458 1458 1458 1459 1459 1459 1459 1459 1460 1460
1446 1446 1446 1446 1447 1447 1448 1448 1449 1449 1450 1450 1450 1451 1451 1452 1452 1452 1452 1453 1453 1453 1453 1454 1454 1454 1454 1455 1455 1455 1455 1455 1455 1456 1456 1456 1456 1457 1457 1457 1457 1457 1457 1458
1442 1441 1442 1442 1442 1443 1444 1445 1445 1446 1447 1447 1448 1448 1449 1449 1449 1450 1450 1451 1451 1451 1452 1452 1452 1452 1452 1452 1452 1452 1452 1453 1453 1453 1454 1454 1454 1454 1454 1454 1455 1455 1455 1456
1437 1437 1438 1438 1438 1439 1440 1441 1442 1443 1444 1445 1446 1446 1446 1446 1446 1447 1448 1448 1449 1449 1450 1450 1450 1450 1450 1450 1450 1450 1450 1450 1451 1451 1451 1452 1452 1452 1452 1452 1453 1453 1453 1454
1433 1434 1434 1435 1436 1436 1437 1438 1439 1440 1441 1442 1443 1443 1443 1444 1444 1445 1446 1446 1446 1446 1447 1448 1449 1449 1448 1448 1449 1448 1448 1448 1449 1449 1449 1450 1450 1450 1450 1451 1451 1451 1451 1451
1430 1431 1431 1432 1433 1433 1434 1435 1436 1437 1438 1439 1440 1440 1441 1441 1442 1443 1443 1444 1444 1445 1445 1446 1446 1447 1446 1446 1446 1446 1446 1446 1446 1447 1447 1447 1448 1448 1448 1448 1449 1449 1449 1449
1428 1428 1428 1429 1430 1430 1431 1432 1433 1434 1435 1436 1437 1437 1438 1438 1439 1440 1440 1441 1442 1443 1443 1444 1444 1444 1444 1444 1445 1445 1445 1445 1445 1445 1445 1445 1446 1446 1446 1446 1446 1446 1447 1447
1426 1426 1427 1427 1427 1428 1429 1430 1431 1432 1433 1433 1434 1435 1435 1436 1436 1437 1438 1439 1440 1440 1441 1441 1442 1442 1442 1442 1442 1442 1442 1443 1443 1443 1443 1443 1443 1444 1444 1444 1444 1444 1444 1444
1425 1425 1425 1425 1426 1426 1427 1428 1429 1429 1430 1430 1431 1432 1432 1433 1434 1434 1435 1437 1437 1438 1438 1439 1440 1440 1440 1440 1440 1440 1440 1441 1441 1441 1441 1441 1441 1441 1441 1441 1441 1441 1441 1441
1424 1424 1424 1425 1425 1425 1426 1426 1427 1427 1428 1428 1429 1429 1430 1430 1431 1432 1433 1434 1435 1435 1436 1437 1438 1438 1438 1438 1438 1438 1438 1439 1439 1439 1439 1439 1439 1439 1439 1439 1439 1438 1438 1438
1423 1423 1423 1423 1423 1423 1424 1425 1425 1425 1425 1426 1426 1427 1428 1428 1429 1430 1431 1432 1433 1433 1434 1435 1435 1435 1435 1436 1436 1436 1436 1436 1436 1436 1436 1436 1436 1436 1436 1436 1436 1435 1435 1435
1421 1421 1421 1422 1422 1422 1422 1422 1422 1423 1423 1424 1424 1425 1425 1426 1427 1428 1429 1430 1431 1431 1432 1432 1433 1433 1433 1433 1433 1434 1434 1434 1434 1434 1434 1434 1433 1433 1433 1433 1432 1432 1432 1432
1419 1419 1419 1419 1420 1420 1420 1420 1420 1421 1421 1421 1422 1423 1423 1424 1425 1425 1426 1427 1428 1429 1429 1429 1430 1430 1430 1431 1431 1431 1431 1431 1431 1431 1430 1430 1430 1430 1429 1429 1429 1429 1428 1428